Temp
68 64 62 67 69 71 71 70 69 75 81 76 74 74 79 84 84 82 84 85 86 87 93 94 88 85 83 81 80 80 79 78 79 80 81 81 81 82 82 82 80 79 79 76
65 60 70 73 73 69 68 67 68 74 78 76 73 71 77 81 82 82 83 85 87 88 91 92 85 81 79 78 78 78 78 76 79 82 82 83 83 84 84 84 80 79 78 75
61 66 73 72 69 67 67 65 66 66 71 74 70 66 70 78 82 84 86 87 87 87 89 89 83 79 79 78 77 77 77 76 79 80 80 79 80 80 80 80 80 78 78 76
63 73 71 69 67 70 62 72 68 65 64 58 72 56 68 74 76 80 83 85 88 90 91 88 82 78 78 78 79 78 77 77 79 78 79 78 80 79 82 81 82 78 77 76
60 64 65 66 68 72 66 70 68 67 64 63 64 60 66 74 72 76 81 85 88 91 88 87 82 80 80 78 78 77 77 77 77 78 79 79 78 81 81 80 75 75 75 76
63 74 71 70 73 73 74 68 68 68 64 53 62 62 63 70 73 78 84 86 89 87 83 83 81 79 78 80 79 78 77 76 77 78 78 78 76 76 78 77 76 75 69 71
59 62 70 74 69 73 69 63 55 50 51 50 66 62 65 75 79 81 82 85 84 82 80 79 78 78 78 79 79 79 78 76 78 78 78 78 76 75 74 74 77 73 70 69
49 49 62 71 69 65 65 64 58 46 49 57 68 57 66 78 83 85 86 86 85 81 80 79 79 79 80 79 79 80 78 77 78 78 78 78 77 80 80 76 79 78 69 74
49 53 69 71 73 73 65 61 72 62 62 59 65 67 73 78 79 82 83 84 83 80 79 79 79 80 80 80 79 79 79 78 78 79 78 77 77 77 76 73 75 76 73 76
53 48 66 68 74 74 70 73 59 64 49 48 59 60 65 72 76 81 83 83 81 80 80 79 80 80 80 80 80 80 80 78 79 79 79 79 77 77 76 75 74 74 74 76
54 53 59 67 63 64 67 65 66 67 64 53 53 59 73 74 80 81 84 83 80 79 80 79 80 81 81 81 80 78 79 79 78 79 79 78 78 77 76 75 75 75 74 75
51 51 47 59 70 74 72 68 66 59 54 62 60 60 79 79 81 80 83 82 82 82 81 82 81 80 81 80 80 79 79 80 80 81 80 79 78 77 74 75 75 75 75 76
44 49 47 55 64 69 66 68 69 67 67 57 55 60 82 81 81 81 80 80 80 81 81 81 81 80 81 80 80 80 80 81 82 81 80 78 76 75 74 74 74 76 76 76
45 48 50 51 57 64 61 65 69 65 60 60 62 65 75 78 79 80 79 79 81 81 80 80 80 81 81 81 81 81 81 82 82 82 80 78 76 75 76 75 75 76 77 76
46 46 52 56 57 58 64 64 67 63 65 61 64 66 73 80 79 80 81 80 80 80 80 79 80 81 81 80 81 82 82 82 82 81 80 78 77 77 76 76 76 76 76 77
49 45 52 50 58 58 58 65 67 67 67 67 67 67 80 82 82 81 80 80 80 80 80 80 81 81 80 80 81 81 81 82 82 81 80 79 78 77 75 75 75 76 76 77
42 41 48 47 57 56 51 62 65 66 69 69 64 70 78 77 78 79 79 80 81 81 81 81 81 81 81 81 81 80 81 82 81 81 80 79 78 77 76 77 76 76 74 76
42 38 50 51 56 41 59 66 69 68 62 65 66 72 75 71 75 77 80 80 83 84 83 82 83 81 81 83 83 82 83 82 82 81 81 81 81 78 78 77 76 74 74 74
49 39 38 46 48 56 57 58 59 62 55 60 62 66 68 71 72 74 74 78 85 86 86 85 85 83 82 82 83 82 82 82 82 82 81 82 81 79 78 76 74 75 74 74
44 45 37 49 46 42 52 58 62 63 53 60 61 62 63 66 67 75 72 75 78 87 86 86 85 84 82 82 82 81 81 82 81 83 82 83 82 80 78 77 75 75 76 75
37 37 35 43 48 49 54 61 64 51 51 60 62 63 63 62 67 68 73 75 77 81 86 86 85 82 81 82 81 80 81 81 84 85 84 83 82 80 79 77 76 75 76 76
36 36 39 41 44 39 58 59 53 53 60 62 63 64 64 65 68 71 73 75 76 80 85 86 84 83 82 83 81 80 80 83 85 85 84 82 81 82 81 77 76 76 75 73
35 37 36 36 37 52 58 57 61 62 61 63 64 66 66 67 68 71 73 75 77 80 84 86 85 83 83 83 82 80 82 84 85 84 82 81 81 82 80 78 76 77 75 77
40 44 38 37 43 53 56 60 61 62 62 65 68 67 69 67 71 71 74 75 78 81 83 86 85 83 81 83 83 84 84 86 85 82 80 80 80 79 80 81 80 80 78 78
42 43 39 38 48 54 57 58 58 59 63 65 69 69 69 70 71 72 74 76 78 81 84 85 85 85 83 83 84 86 85 86 83 81 80 80 81 78 79 81 82 82 81 77
42 40 37 37 46 48 53 58 59 56 58 63 65 67 70 71 71 73 74 77 78 79 85 85 85 85 86 85 85 86 88 86 82 80 81 82 83 80 82 81 79 44 51 51
MSLP
1006.08 1005.69 1002.74 1000.40 1002.08 1002.25 1002.16 1001.16 1000.40 1000.36 1000.79 1001.18 1000.76 1000.13 999.80 999.80 999.58 999.76 999.44 999.00 998.59 998.31 998.05 998.45 999.30 999.91 1000.41 1001.01 1001.72 1002.59 1003.19 1004.00 1004.58 1005.11 1005.69 1006.55 1007.16 1007.52 1007.72 1008.08 1008.43 1008.72 1008.74 1009.07
1004.80 1002.38 998.35 1001.93 1002.11 1002.00 1001.77 1001.14 1000.09 1000.49 1000.78 1000.99 1000.68 1000.10 999.89 999.68 999.13 998.95 998.56 997.95 997.57 997.51 997.54 997.73 998.96 1000.01 1000.51 1001.05 1001.83 1002.58 1003.51 1004.34 1004.55 1005.00 1005.57 1006.12 1006.55 1006.87 1007.22 1007.59 1008.18 1008.30 1008.58 1008.88
1001.51 997.14 1001.61 1000.64 1000.82 1000.74 1000.28 1000.50 1000.82 1000.97 1001.62 1001.36 1001.35 1000.13 999.71 998.99 998.05 997.50 997.08 997.01 996.93 996.86 996.80 997.43 998.85 999.81 1000.44 1000.99 1001.83 1002.65 1003.41 1004.33 1004.66 1005.11 1006.05 1006.66 1006.95 1007.25 1007.30 1007.41 1007.65 1008.07 1008.28 1008.48
1001.67 1000.33 999.42 999.70 998.90 999.66 999.14 1000.73 1001.53 1001.62 1001.85 1000.44 1001.03 998.52 998.12 997.68 996.85 996.51 996.42 996.24 995.78 995.88 996.16 997.20 998.53 999.69 1000.33 1000.99 1001.89 1002.74 1003.48 1004.19 1004.88 1005.52 1005.72 1006.05 1005.98 1006.19 1006.45 1007.06 1007.41 1007.86 1008.24 1008.23
999.24 999.53 998.98 997.94 996.75 999.31 998.89 1000.55 1001.13 1001.45 1001.18 1001.08 1000.49 999.36 997.14 996.90 995.78 995.26 995.15 994.88 994.80 995.10 995.80 996.75 998.29 999.44 1000.29 1001.15 1001.85 1002.81 1003.58 1004.18 1004.98 1005.43 1005.64 1005.98 1006.17 1006.37 1006.72 1007.11 1007.61 1007.81 1008.08 1008.07
1000.29 999.15 998.46 996.77 998.30 998.68 999.81 1000.46 1000.84 1000.89 1000.65 999.58 999.42 998.72 996.44 995.04 994.28 994.09 993.79 993.78 993.79 995.18 996.35 997.25 998.45 999.61 1000.43 1001.12 1001.99 1002.84 1003.57 1004.33 1005.08 1005.48 1005.83 1006.00 1006.37 1006.60 1006.65 1007.02 1007.13 1007.37 1008.17 1008.25
1000.29 999.06 998.28 997.33 997.37 998.14 999.00 999.48 999.22 999.49 998.90 998.11 998.03 997.11 995.21 994.05 993.58 993.41 993.49 993.43 994.51 995.70 996.57 997.46 998.51 999.36 1000.21 1001.02 1001.86 1002.72 1003.48 1004.39 1005.01 1005.43 1005.80 1006.07 1006.46 1006.79 1006.98 1007.14 1006.93 1007.37 1007.84 1008.09
1000.22 998.47 997.50 996.52 995.68 995.79 996.81 997.31 996.43 996.42 996.79 996.72 996.13 995.51 994.12 993.73 993.04 992.60 992.89 993.45 994.25 995.64 996.48 997.32 998.43 999.26 1000.07 1000.98 1001.85 1002.49 1003.44 1004.32 1004.95 1005.39 1005.72 1006.11 1006.54 1006.33 1006.66 1007.07 1006.92 1006.99 1007.85 1007.58
999.87 997.42 996.25 995.99 995.92 995.41 995.74 995.32 995.74 995.76 996.36 995.95 994.56 994.75 994.08 993.22 992.55 992.25 992.44 993.11 994.13 995.48 996.53 997.47 998.53 999.36 1000.22 1001.07 1001.85 1002.57 1003.37 1004.24 1004.88 1005.30 1005.65 1006.12 1006.47 1006.72 1006.92 1007.26 1007.33 1007.27 1007.82 1007.63
1001.61 998.06 995.49 995.77 995.24 994.82 994.32 995.70 995.62 995.32 995.17 995.00 994.32 994.01 992.86 992.19 991.54 991.66 991.92 992.82 994.22 995.56 996.61 997.67 998.56 999.47 1000.36 1001.15 1001.98 1002.78 1003.50 1004.19 1004.75 1005.15 1005.58 1005.87 1006.48 1006.72 1007.04 1007.25 1007.28 1007.40 1007.78 1007.75
1003.18 1000.08 995.92 995.14 993.84 992.76 993.50 993.81 994.51 994.89 994.80 994.40 993.97 993.27 992.76 992.50 991.51 991.39 991.77 992.82 994.23 995.39 996.44 997.68 998.64 999.65 1000.40 1001.12 1002.05 1002.91 1003.50 1004.11 1004.69 1005.07 1005.40 1005.76 1006.14 1006.60 1006.90 1007.11 1007.35 1007.52 1007.81 1007.91
1004.02 1001.17 997.26 994.25 993.94 993.35 993.15 993.13 994.08 993.91 994.49 994.46 993.99 993.14 992.63 992.27 992.01 992.35 991.97 993.15 994.30 995.26 996.25 997.35 998.51 999.53 1000.18 1001.01 1001.93 1002.78 1003.42 1003.92 1004.46 1004.81 1005.24 1005.67 1006.14 1006.48 1006.80 1007.03 1007.31 1007.63 1007.68 1007.86
1005.66 1001.79 997.69 994.72 994.30 993.64 992.76 993.48 993.77 994.19 993.75 994.04 993.96 993.07 992.19 992.32 992.20 992.67 992.81 993.71 994.60 995.25 996.26 997.27 998.33 999.16 999.95 1000.89 1001.78 1002.55 1003.24 1003.63 1004.13 1004.59 1005.10 1005.57 1006.04 1006.45 1006.76 1006.99 1007.32 1007.56 1007.70 1007.78
1006.37 1002.54 998.41 995.19 993.87 993.38 992.87 993.03 993.35 993.89 993.46 993.34 993.12 992.80 992.15 992.15 992.32 992.92 993.56 994.19 994.73 995.48 996.23 997.01 998.10 998.91 999.78 1000.81 1001.63 1002.29 1002.91 1003.46 1003.99 1004.37 1004.82 1005.34 1005.92 1006.34 1006.56 1006.94 1007.30 1007.50 1007.61 1007.69
1005.53 1002.25 999.62 997.60 996.28 995.07 993.13 993.07 992.98 993.48 993.58 993.08 992.97 993.00 992.50 991.86 992.65 993.27 993.81 994.34 994.85 995.41 996.21 996.93 997.79 998.62 999.64 1000.65 1001.48 1002.12 1002.75 1003.33 1003.93 1004.26 1004.70 1005.32 1005.88 1006.21 1006.61 1006.86 1007.20 1007.46 1007.60 1007.56
1005.07 1002.29 1000.02 998.31 997.20 995.95 994.10 993.26 993.32 993.67 993.74 993.56 993.53 992.95 992.68 992.77 993.32 993.77 994.11 994.60 994.80 995.21 996.01 996.87 997.58 998.40 999.42 1000.38 1001.20 1001.94 1002.57 1003.22 1003.85 1004.18 1004.61 1005.32 1005.78 1006.24 1006.68 1007.07 1007.24 1007.44 1007.55 1007.63
1005.37 1003.80 1000.56 997.88 997.06 996.25 995.15 993.57 993.69 994.15 994.23 994.32 993.50 993.52 993.65 993.71 994.00 994.19 994.61 994.73 994.65 995.03 995.53 996.44 997.26 998.09 999.20 1000.15 1000.97 1001.79 1002.39 1003.14 1003.73 1004.06 1004.67 1005.23 1005.73 1006.25 1006.72 1006.94 1007.14 1007.44 1007.64 1007.68
1005.62 1004.70 1001.33 998.09 997.03 996.46 995.42 995.45 994.59 994.46 995.87 995.93 995.70 995.19 994.78 995.86 996.01 995.87 995.40 995.07 994.45 994.76 995.44 996.08 997.04 997.95 999.11 1000.02 1000.87 1001.70 1002.28 1002.95 1003.48 1003.88 1004.47 1005.00 1005.46 1006.13 1006.62 1006.92 1007.20 1007.61 1007.85 1007.93
1005.69 1005.45 1003.04 999.16 997.54 996.63 996.70 997.16 996.82 996.23 997.71 998.00 997.47 997.16 996.71 996.72 996.77 996.01 996.22 995.52 994.15 994.26 995.35 996.24 997.05 997.78 998.82 999.82 1000.70 1001.44 1002.00 1002.64 1003.15 1003.59 1004.26 1004.79 1005.37 1006.00 1006.48 1006.83 1007.33 1007.61 1007.81 1008.06
1006.11 1005.55 1004.46 1000.26 998.03 997.42 998.33 998.67 998.63 998.29 998.38 999.44 999.28 998.57 998.00 997.72 996.35 995.78 997.04 996.73 995.81 994.51 995.09 995.93 996.90 997.88 998.53 999.53 1000.51 1001.16 1001.68 1002.23 1002.76 1003.30 1004.00 1004.61 1005.22 1005.82 1006.32 1006.87 1007.34 1007.68 1007.85 1008.06
1006.16 1005.66 1004.48 1001.84 999.02 999.62 1000.25 999.17 999.03 999.13 1000.31 1000.43 1000.13 999.60 999.01 998.53 998.22 997.51 997.37 996.80 996.38 995.56 995.10 995.81 996.65 997.65 998.38 999.28 1000.23 1000.84 1001.35 1001.91 1002.49 1003.12 1003.79 1004.50 1005.11 1005.72 1006.29 1006.97 1007.45 1007.66 1007.75 1008.09
1006.22 1005.75 1004.90 1003.60 1001.19 1001.37 1001.34 1000.40 1000.03 1001.52 1001.14 1000.92 1000.50 1000.02 999.53 999.19 998.52 997.72 997.12 996.61 996.13 995.38 995.09 995.62 996.38 997.28 998.30 999.01 999.88 1000.38 1001.00 1001.64 1002.24 1002.90 1003.57 1004.33 1005.01 1005.43 1006.13 1006.90 1007.42 1007.68 1008.00 1008.32
1007.10 1006.96 1006.13 1005.75 1004.52 1003.39 1002.52 1002.33 1002.44 1002.30 1001.67 1001.30 1000.75 1000.25 999.76 998.97 998.35 997.62 996.89 996.37 995.86 995.30 994.95 995.34 995.96 996.87 997.96 998.80 999.37 999.86 1000.62 1001.32 1001.90 1002.66 1003.45 1004.24 1004.95 1005.36 1005.95 1006.65 1007.24 1007.53 1007.98 1008.01
1007.50 1007.29 1006.87 1006.48 1005.47 1004.04 1003.73 1003.40 1003.42 1003.07 1002.42 1001.59 1000.83 1000.21 999.58 998.88 998.04 997.37 996.66 996.11 995.52 995.00 994.74 994.99 995.49 996.15 997.10 998.24 999.02 999.51 1000.24 1000.90 1001.53 1002.43 1003.33 1004.10 1004.72 1005.18 1005.76 1006.29 1006.87 1006.96 1007.37 1007.60
1007.84 1007.44 1007.16 1006.60 1005.78 1004.50 1003.79 1004.23 1004.12 1003.74 1003.00 1001.97 1000.99 1000.35 999.74 998.96 998.02 997.48 996.52 995.90 995.40 994.89 994.56 994.64 994.88 995.49 996.51 997.51 998.51 999.12 999.85 1000.40 1001.15 1002.15 1002.97 1003.73 1004.34 1005.06 1005.44 1005.74 1006.21 1006.55 1007.05 1007.27
1008.59 1008.19 1007.74 1007.23 1006.77 1006.02 1004.91 1004.61 1004.48 1004.10 1003.44 1002.58 1001.57 1000.35 999.70 999.05 998.32 997.64 996.75 995.93 995.37 994.92 994.31 994.37 994.75 995.11 995.84 996.71 997.66 998.49 999.20 1000.02 1000.78 1001.56 1002.31 1002.98 1003.47 1004.49 1004.79 1005.39 1006.36 1007.37 1007.59 1007.71
Wind_Speed
24 21 30 40 32 25 25 27 30 26 23 26 26 29 28 26 20 23 24 19 21 21 21 16 7 7 6 8 12 14 16 17 14 12 12 10 9 7 6 5 6 7 7 7
21 31 43 28 29 27 27 29 30 26 22 23 22 26 26 24 23 25 26 24 21 20 18 12 3 6 7 10 12 14 15 17 13 10 8 7 6 5 4 3 4 6 6 8
35 42 25 31 29 32 31 30 26 26 18 20 22 27 28 27 30 27 24 22 18 20 19 12 6 7 9 12 14 15 17 17 13 12 8 6 5 3 5 6 6 5 7 6
32 31 26 32 35 32 32 24 22 20 19 21 18 22 24 21 25 24 23 22 22 18 14 8 8 9 10 12 14 16 17 16 12 12 9 8 5 4 1 2 2 4 5 6
31 23 36 31 37 28 25 14 19 21 19 20 23 17 20 22 22 21 21 21 19 14 7 8 10 11 12 14 15 16 17 15 14 10 9 8 4 4 4 3 4 4 5 5
28 13 22 39 20 26 18 14 18 16 14 19 20 21 17 20 24 21 13 12 10 8 6 9 11 13 14 15 17 16 16 14 13 11 9 5 5 3 3 4 4 4 3 4
23 27 23 18 27 22 23 21 11 12 13 12 16 16 21 21 17 14 12 5 8 7 11 14 15 15 17 19 18 16 16 14 13 11 9 7 5 4 4 5 3 1 3 4
22 22 31 25 29 21 28 25 12 17 12 13 18 10 13 11 14 11 13 10 3 7 11 14 15 16 19 19 18 16 15 14 12 11 9 6 6 4 3 1 2 2 4 5
14 27 30 21 26 29 32 26 21 10 2 6 8 10 12 20 19 12 5 9 7 10 12 15 16 17 18 17 16 15 15 13 12 11 8 7 6 3 4 4 2 4 5 6
9 14 22 31 25 27 29 23 21 14 15 13 8 11 8 5 5 9 10 8 11 13 15 16 16 17 16 15 15 14 13 12 11 11 9 8 6 6 5 5 4 5 6 5
11 9 20 29 25 26 19 23 20 14 10 10 5 5 10 12 4 1 6 9 15 16 17 16 17 16 16 15 14 13 12 12 11 10 9 7 7 6 6 5 5 6 6 6
6 8 12 26 24 23 23 19 22 14 19 11 5 4 4 1 3 4 3 10 15 17 18 19 18 17 16 16 15 14 11 12 11 10 9 7 6 6 6 6 6 6 6 6
3 10 10 19 22 22 26 23 21 16 9 17 13 5 10 4 8 6 6 11 15 18 19 19 18 17 16 15 15 14 12 12 11 10 8 7 6 6 6 7 6 6 6 6
7 10 14 8 16 12 25 26 26 20 11 13 17 8 9 10 7 9 7 12 15 16 18 18 17 16 16 15 14 13 13 11 10 9 7 7 5 6 6 7 7 6 6 6
5 15 18 14 5 5 14 26 23 25 18 16 12 18 18 8 3 10 6 10 14 16 17 18 18 16 16 15 14 13 12 11 10 9 8 7 6 6 8 8 8 6 6 6
5 7 14 17 12 5 6 24 23 22 22 16 11 15 11 8 4 7 3 8 13 16 16 18 19 18 17 17 15 13 13 12 11 10 9 8 7 8 8 9 9 8 7 7
6 5 10 19 14 5 7 12 18 20 21 18 20 17 13 10 10 10 9 3 11 14 17 19 19 18 16 16 15 14 13 13 12 11 10 9 8 10 10 10 10 8 7 6
8 9 6 15 15 14 11 4 7 11 4 4 9 13 7 7 9 12 14 14 9 14 16 19 17 17 16 17 16 15 14 14 13 11 11 10 11 11 10 10 9 8 6 5
10 4 6 7 14 10 10 7 1 9 6 7 5 7 11 11 11 5 11 15 9 12 13 14 15 18 18 18 17 16 15 15 14 13 12 11 11 11 10 10 9 7 7 6
6 10 5 9 17 10 12 7 4 4 7 7 7 7 10 11 7 4 12 11 10 6 12 14 17 17 19 18 18 16 16 15 15 14 14 12 12 12 10 10 9 7 7 7
4 4 8 9 7 8 9 10 9 10 7 7 7 8 9 8 10 18 15 10 7 11 12 15 18 17 18 19 19 17 17 16 15 14 14 13 12 11 10 9 7 7 6 7
1 2 5 6 4 7 12 2 3 8 5 7 8 9 10 10 11 13 12 10 8 7 13 17 17 17 18 20 19 18 17 16 15 15 14 14 12 10 9 10 8 7 7 7
1 4 2 4 4 5 8 11 10 8 8 9 10 11 11 11 11 12 10 9 7 7 12 16 17 18 18 19 19 19 17 17 17 15 14 14 13 11 11 10 9 8 7 7
2 4 3 3 6 8 11 10 12 12 12 11 10 11 12 14 13 12 11 9 7 6 12 15 18 20 20 19 19 18 18 18 17 16 15 13 13 12 12 10 9 8 7 7
6 5 5 2 8 3 9 12 15 14 14 15 14 12 13 14 14 14 12 9 7 7 11 15 18 18 20 20 19 18 19 19 17 16 15 14 12 12 11 10 9 9 8 5
6 5 4 3 5 8 11 12 13 16 15 16 16 16 14 13 15 15 14 11 7 7 10 14 16 18 20 20 20 20 20 19 18 17 14 13 12 12 11 11 8 8 8 9
Wind_Direction
196 205 217 215 218 234 250 250 247 244 234 246 252 262 274 275 279 269 274 279 279 284 286 282 285 273 205 181 180 192 181 169 166 161 167 175 194 198 209 226 237 248 252 247
192 217 220 219 222 224 235 240 247 258 261 267 278 276 273 273 274 276 274 270 272 270 282 278 256 217 182 169 176 170 168 164 164 160 170 185 195 195 217 213 234 249 242 242
214 224 217 218 219 224 226 235 244 257 273 261 255 266 270 264 259 261 262 258 257 263 277 268 207 193 169 163 164 164 159 160 161 149 146 153 146 178 207 202 220 208 234 236
231 231 218 222 223 217 231 224 246 255 254 256 251 275 273 281 276 268 266 263 264 265 258 228 183 175 168 154 157 156 154 155 151 165 164 174 194 224 107 245 187 222 223 222
224 219 230 220 222 219 233 232 235 238 251 267 258 261 274 262 267 259 257 255 249 243 248 188 173 160 151 148 150 151 151 156 151 158 165 168 206 161 185 194 194 245 195 209
244 222 222 231 220 220 219 213 224 235 245 248 250 250 266 265 261 267 267 246 216 168 167 146 139 143 144 146 147 149 150 146 154 160 153 172 152 192 213 209 228 214 172 217
229 237 245 227 208 199 192 190 192 213 218 245 247 241 249 278 282 262 259 207 142 156 154 147 149 148 149 151 150 149 149 150 156 157 163 161 158 169 202 228 247 183 203 204
224 222 220 205 211 184 192 188 207 216 227 240 214 240 242 276 273 276 242 225 140 156 143 142 146 146 149 151 152 149 150 153 160 163 165 154 152 173 194 181 327 162 159 184
236 231 185 215 210 198 187 208 211 244 194 264 209 235 266 259 258 256 228 211 178 155 148 142 144 148 150 151 152 150 152 155 161 167 159 161 156 164 83 92 179 152 152 132
275 265 210 200 202 205 194 191 200 212 224 233 234 250 257 302 195 226 233 192 161 150 145 143 148 150 148 150 148 151 154 156 164 163 165 163 160 151 125 130 128 147 147 155
275 258 205 185 198 187 190 195 209 198 239 196 233 220 258 256 299 162 161 154 156 153 148 149 152 149 150 149 149 154 157 162 166 168 167 159 160 148 138 136 143 152 163 170
309 301 277 190 199 214 203 188 194 198 190 235 270 274 160 46 277 338 201 145 151 152 151 151 152 154 152 153 155 157 161 166 168 168 167 165 156 164 146 143 145 159 174 182
334 234 222 196 186 207 197 201 192 210 199 205 208 233 212 73 76 48 117 143 152 149 151 151 154 158 156 155 159 159 169 167 164 165 161 163 160 160 157 144 146 170 173 176
254 260 257 206 176 197 198 198 192 202 202 198 215 221 213 160 77 50 95 153 156 159 156 154 159 160 157 159 164 161 170 162 161 168 165 146 152 155 143 142 145 159 175 169
279 236 235 263 343 308 229 200 194 198 216 222 191 228 246 212 41 25 20 163 160 159 166 161 163 162 157 163 164 166 166 163 163 164 159 139 138 135 143 141 141 145 158 164
311 267 255 251 227 251 292 196 200 203 213 224 227 244 243 256 283 319 15 193 180 169 172 169 167 162 164 165 168 165 166 162 164 163 147 143 140 140 139 140 140 147 143 149
302 308 232 230 205 230 221 206 200 209 217 222 225 234 274 297 309 317 353 289 209 183 176 176 173 166 166 167 168 168 164 162 164 166 147 149 144 142 145 144 142 138 143 147
265 313 272 228 195 209 90 48 233 203 33 321 283 275 312 324 313 311 287 273 249 195 188 179 175 166 166 166 167 168 165 166 168 166 159 152 150 146 146 149 137 141 150 145
220 256 274 203 203 146 146 55 4 198 92 20 339 302 308 316 310 257 19 358 298 203 187 191 177 166 165 168 165 170 169 172 170 166 162 159 151 151 150 143 144 149 157 147
246 241 273 215 194 190 57 344 273 243 153 33 344 329 333 332 259 111 359 348 331 205 183 188 176 171 166 169 168 172 173 176 174 170 168 165 156 154 153 138 140 148 153 144
183 186 220 255 199 104 1 345 159 207 68 1 348 344 338 320 328 319 315 318 310 274 194 181 178 178 171 168 170 178 176 181 176 171 170 171 164 162 153 144 142 145 159 132
35 224 182 252 221 131 352 76 325 29 0 359 351 353 341 321 311 309 314 307 298 267 197 185 179 176 176 171 174 179 180 180 177 171 173 173 171 182 163 163 153 149 140 144
107 2 33 359 44 19 69 66 49 18 360 4 345 346 340 336 332 322 321 309 287 272 201 185 182 176 177 178 181 181 178 181 177 174 176 173 177 188 166 171 166 162 169 157
43 15 33 272 341 75 57 44 23 4 354 347 344 345 343 344 345 337 331 322 300 253 207 189 186 182 176 182 186 186 176 181 177 176 177 177 183 183 176 182 177 182 181 174
0 342 353 4 20 196 44 5 358 352 347 347 349 346 349 346 354 348 337 325 302 280 207 198 195 187 178 179 188 186 179 181 177 178 178 180 187 187 182 200 185 193 187 188
352 3 7 5 348 313 323 341 345 342 340 340 341 338 347 350 351 354 346 341 315 275 231 206 200 189 182 181 185 186 182 181 181 181 182 183 185 183 189 193 179 58 32 116